"Pseudo-MPEC" for C0J81Q5
Created 2023 Sep 20 14:22:04 UT using Find_Orb
Click here for an explanation of pseudo-MPECs
Astrometry: C0J81Q5* C2023 09 18.42304802 57 14.756+10 55 55.42 ~9IAq 21.83GVNEOCPV00 C0J81Q5 C2023 09 18.42919202 57 15.134+10 56 00.49 ~9IAq 21.93GVNEOCPV00 C0J81Q5 C2023 09 18.43530202 57 15.498+10 56 05.42 ~9IAq 21.86GVNEOCPV00 C0J81Q5 C2023 09 18.44143602 57 15.862+10 56 10.14 ~9IAq 21.51GVNEOCPV00 C0J81Q5 KC2023 09 18.46211 02 57 17.08 +10 56 27.3 ~9ICM 22.3 RoNEOCP291 C0J81Q5 C2023 09 18];u.]lPZx]EV?YC2kht+x39DCZ3aPc#gYyPpkPC=uy\.voS?i^=V
F51 C0J81Q5 KC2023 09 18.47512 02 57 17.86 +10 56 37.5 ~9ICM 22.0 RoNEOCP291 C0J81Q5 mC2023 09 18.47797602 57 18.054+10 56 39.73 ~9IC7 21.77GVNEOCPV00 C0J81Q5 mC2023 09 18.48078902 57 18.220+10 56 42.14 ~9IC7 21.81GVNEOCPV00 C0J81Q5 C2023 09 18xay2O`l=)KYAa9q^WF79U4bbSQGpay2`e;'-0Y4D
AstrometryTv
F51 C0J81Q5 mC2023 09 18.48360202 57 18.385+10 56 44.45 ~9IC7 21.84GVNEOCPV00 C0J81Q5 mC2023 09 18.48639902 57 18.569+10 56 46.64 ~9IC7 21.92GVNEOCPV00 C0J81Q5 KC2023 09 18.48811 02 57 18.66 +10 56 48.2 ~9ICM 21.9 RoNEOCP291 C0J81Q5 C2023 09 18]L4nrLb':JDGVkq=
redacted;D)$/x$
click6`vs1DMa\Su*!l-;
F51 C0J81Q5 C2023 09 18q+bMPZjt=H]p'sV#NOhLVOb0%m69wv0)8]YL(.DPk:W?J5mS#?/-
F51 C0J81Q5 KC2023 09 19.35916802 58 14.596+11 08 35.95 ~9J9b 21.72GVNEOCPI52 C0J81Q5 KC2023 09 19.36743402 58 15.085+11 08 42.90 ~9J9b 21.33GVNEOCPI52 C0J81Q5 KC2023 09 19.37501802 58 15.510+11 08 49.06 ~9J9b 21.65GVNEOCPI52 C0J81Q5 KC2023 09 19.38083802 58 15.870+11 08 53.74 ~9J9b 21.50GVNEOCPI52 C0J81Q5 KC2023 09 19(sfO/FhaByD56#;e_o1SPWoC0stZxmFMWlrio$+s?J_Ysp2SjICT
H21 C0J81Q5 KC2023 09 19v9NV8ve-H[%7PA;\:5`SnY#Z2#$[FYW:agR7iqDlSI)]Dy?94%l\
H21 C0J81Q5 KC2023 09 20.33783802 59 15.551+11 22 00.66 ~9K97 21.60GVNEOCPI52 C0J81Q5 KC2023 09 208ppK
heresO`t.rhI_@
for;
explanation)k_uxc$\aWUE5G[M=RR
H21 C0J81Q5 KC2023 09 20.35214402 59 16.433+11 22 12.40 ~9K97 21.60GVNEOCPI52 C0J81Q5 KC2023 09 20j'9ie,lJ--rG(p0a,qbLdQsE$jQW42JS!59H9@UGl)fDI8ced'7t
H21 C0J81Q5 KC2023 09 20.35601502 59 16.649+11 22 15.53 ~9K97 21.89GVNEOCPI52 C0J81Q5 KC2023 09 20.38065502 59 18.092+11 22 36.30 ~9K9b 21.91GVNEOCPV06 C0J81Q5 KC2023 09 20.38237702 59 18.164+11 22 37.09 ~9K9b VNEOCPV06 C0J81Q5 KC2023 09 20.38409902 59 18.294+11 22 39.00 ~9K9b 22.04GVNEOCPV06 C0J81Q5 KC2023 09 20.38582202 59 18.373+11 22 40.51 ~9K9b 22.07GVNEOCPV06 Station data: (291) LPL/Spacewatch II (N31.961669 W111.599905) US/Arizona. Observers J. V. Scotti, R. S. McMillan. 1.8-m f/2.7 reflector + CCD. (F51) Pan-STARRS 1, Haleakala (N20.707234 W156.255910) US/Hawaii. Observers J. Bulger, T. Lowe, A. Schultz, M. Willman. Measurers K. Chambers, S. Chastel, T. de Boer, L. Denneau, J. Fairlamb, H. Flewelling, M. Huber, C.-C. Lin, E. Magnier, Y. Ramanjooloo, R. Wainscoat, R. Weryk. 1.8-m Ritchey-Chrétien + CCD. (H21) Astronomical Research Observatory, Westfield (N39.483054 W87.968270) US/Illinois. Observer R. Holmes. Measurers S. Foglia, L. Buzzi, T. Linder, R. Holmes. 0.76-m f/3.0 astrograph + CCD0.81-m f/4.0 astrograph + CCD0.61-m f/4.5 astrograph + CCD0.40-m f/5.32 astrograph + CCD. (I52) Steward Observatory, Mt. Lemmon Station (N32.442544 W110.788920) US/Arizona. Observers T. A. Pruyne, B. M. Africano, E. J. Christensen, G. A. Farneth, D. C. Fuls, A. R. Gibbs, A. D. Grauer, H. Gröller, J. A. Johnson, R. A. Kowalski, S. M. Larson, G. J. Leonard, D. Rankin, R. L. Seaman, F. C. Shelly, K. W. Wierzchoś. 1.0-m prime focus + CCD. (V00) Kitt Peak-Bok (N31.963125 W111.600190) US/Arizona. Observers T. A. Pruyne, B. M. Africano, E. J. Christensen, G. A. Farneth, D. C. Fuls, A. R. Gibbs, A. D. Grauer, H. Gröller, J. A. Johnson, R. A. Kowalski, S. M. Larson, G. J. Leonard, D. Rankin, R. L. Seaman, F. C. Shelly, K. W. Wierzchoś. 2.25-m reflector + 4x4K mosaic CCD. (V06) Catalina Sky Survey-Kuiper (N32.416844 W110.732550) US/Arizona. Observers T. A. Pruyne, B. M. Africano, E. J. Christensen, G. A. Farneth, D. C. Fuls, A. R. Gibbs, A. D. Grauer, H. Gröller, J. A. Johnson, R. A. Kowalski, S. M. Larson, G. J. Leonard, D. Rankin, R. L. Seaman, F. C. Shelly, K. W. Wierzchoś. 1.55-m reflector + CCD. Orbital elements: C0J81Q5 Perihelion 2023 Nov 7.06271 +/- 13.2 TT = 1:30:18 (JD 2460255.56271) Epoch 2023 Sep 20.0 TT = JDT 2460207.5 Earth MOID: 0.5482 Ju: 0.6469 M 351.66183863 +/- 5.0 Ma: 0.0936 AutoNEOCP n 0.17348502 +/- 0.0452 Peri. 13.67041 +/- 10 a 3.18391441 +/- 0.552 Node 33.19827 +/- 0.8 e 0.5171108 +/- 0.0646 Incl. 9.38839 +/- 0.7 P 5.68 H 20.34 G 0.15 U 10.7 SR q 1.53747763 +/- 0.061 Q 4.83035118 +/- 0.714 (J2000 ecliptic) From 30 observations 2023 Sept. 18-20 (47.1 hr); mean residual 0".55
Residuals in arcseconds: 230918 V00 .28+ .13+ 230918 V00 .12- .08+ 230919 H21 1.1- 1.1- 230918 V00 .38+ .21+ 230918 V00 .10+ .01+ 230920 I52 .38- .39+ 230918 V00 .31+ .18+ 230918 291 .08- .19+ 230920 H21 .21+ .69+ 230918 V00 .21+ .08- 230918 F51 .12+ .06+ 230920 I52 .42+ .25+ 230918 291 .22- .32+ 230918 F51 .07- .20+ 230920 H21 .13- .62+ 230918 F51 .25+ .12+ 230919 I52 .79- 1.3- 230920 I52 .31+ .17+ 230918 291 .30- .01- 230919 I52 .81- 1.1- 230920 V06 .70+ .50+ 230918 V00 .01+ .09- 230919 I52 1.2- 1.2- 230920 V06 .31+ .13- 230918 V00 .04- .05+ 230919 I52 .92- 1.3- 230920 V06 .77+ .35+ 230918 F51 .09+ .06+ 230919 H21 .86- .87- 230920 V06 .48+ .44+ Ephemerides (geocentric): Date (UTC) HH RA Dec delta r elong mag " sig PA ---- -------- ------------ ------------ ------ ------ ----- --- -------- 2023 09 20 14 02 59 30.207 +11 25 27.21 .75855 1.6078 131.1 22.0 1.19 104 2023 09 20 15 02 59 32.746 +11 26 01.61 .75823 1.6076 131.1 22.0 1.35 106 2023 09 20 16 02 59 35.281 +11 26 36.03 .75790 1.6075 131.1 22.0 1.51 109 2023 09 20 17 02 59 37.814 +11 27 10.47 .75758 1.6074 131.1 22.0 1.69 110 2023 09 20 18 02 59 40.343 +11 27 44.91 .75726 1.6073 131.2 22.0 1.87 111 2023 09 20 19 02 59 42.870 +11 28 19.37 .75694 1.6072 131.2 22.0 2.05 112 2023 09 20 20 02 59 45.394 +11 28 53.83 .75662 1.6071 131.2 22.0 2.24 113 2023 09 20 21 02 59 47.915 +11 29 28.31 .75630 1.6069 131.3 22.0 2.44 114 2023 09 20 22 02 59 50.433 +11 30 02.81 .75598 1.6068 131.3 22.0 2.64 115 2023 09 20 23 02 59 52.948 +11 30 37.31 .75566 1.6067 131.3 22.0 2.85 115 2023 09 21 00 02 59 55.460 +11 31 11.83 .75534 1.6066 131.3 22.0 3.06 116 2023 09 21 01 02 59 57.969 +11 31 46.35 .75502 1.6065 131.4 22.0 3.29 116 2023 09 21 02 03 00 00.475 +11 32 20.89 .75470 1.6063 131.4 22.0 3.51 117 2023 09 21 03 03 00 02.978 +11 32 55.45 .75438 1.6062 131.4 22.0 3.74 117 2023 09 21 04 03 00 05.478 +11 33 30.01 .75406 1.6061 131.5 22.0 3.98 117 2023 09 21 05 03 00 07.976 +11 34 04.59 .75374 1.6060 131.5 22.0 4.23 117 2023 09 21 06 03 00 10.470 +11 34 39.17 .75342 1.6059 131.5 22.0 4.48 118 2023 09 21 07 03 00 12.961 +11 35 13.78 .75310 1.6058 131.5 22.0 4.73 118 2023 09 21 08 03 00 15.450 +11 35 48.39 .75278 1.6056 131.6 22.0 4.99 118 2023 09 21 09 03 00 17.935 +11 36 23.01 .75246 1.6055 131.6 22.0 5.26 118 2023 09 21 10 03 00 20.418 +11 36 57.65 .75214 1.6054 131.6 22.0 5.53 118 2023 09 21 11 03 00 22.897 +11 37 32.30 .75182 1.6053 131.7 22.0 5.81 119 2023 09 21 12 03 00 25.374 +11 38 06.96 .75151 1.6052 131.7 22.0 6.10 119 2023 09 21 13 03 00 27.847 +11 38 41.63 .75119 1.6051 131.7 22.0 6.39 119 2023 09 21 14 03 00 30.318 +11 39 16.32 .75087 1.6049 131.7 22.0 6.69 119 2023 09 21 15 03 00 32.786 +11 39 51.02 .75055 1.6048 131.8 22.0 6.99 119 2023 09 21 16 03 00 35.250 +11 40 25.73 .75024 1.6047 131.8 22.0 7.30 119 2023 09 21 17 03 00 37.712 +11 41 00.45 .74992 1.6046 131.8 22.0 7.61 119 2023 09 21 18 03 00 40.171 +11 41 35.19 .74960 1.6045 131.9 22.0 7.93 120 2023 09 21 19 03 00 42.626 +11 42 09.93 .74929 1.6044 131.9 22.0 8.26 120 2023 09 21 20 03 00 45.079 +11 42 44.69 .74897 1.6042 131.9 22.0 8.59 120 2023 09 21 21 03 00 47.529 +11 43 19.46 .74866 1.6041 131.9 22.0 8.93 120 2023 09 21 22 03 00 49.975 +11 43 54.25 .74834 1.6040 132.0 22.0 9.27 120 2023 09 21 23 03 00 52.419 +11 44 29.04 .74802 1.6039 132.0 22.0 9.62 120 2023 09 22 00 03 00 54.860 +11 45 03.85 .74771 1.6038 132.0 22.0 9.98 120 2023 09 22 01 03 00 57.297 +11 45 38.67 .74739 1.6037 132.1 22.0 10.3 120 2023 09 22 02 03 00 59.732 +11 46 13.51 .74708 1.6035 132.1 22.0 10.7 120 2023 09 22 03 03 01 02.164 +11 46 48.35 .74676 1.6034 132.1 22.0 11.1 120 2023 09 22 04 03 01 04.593 +11 47 23.21 .74645 1.6033 132.1 22.0 11.5 120 2023 09 22 05 03 01 07.018 +11 47 58.08 .74613 1.6032 132.2 22.0 11.8 120 2023 09 22 06 03 01 09.441 +11 48 32.96 .74582 1.6031 132.2 22.0 12.2 120 2023 09 22 07 03 01 11.861 +11 49 07.86 .74551 1.6030 132.2 22.0 12.6 121 2023 09 22 08 03 01 14.277 +11 49 42.77 .74519 1.6029 132.3 22.0 13.0 121 2023 09 22 09 03 01 16.691 +11 50 17.69 .74488 1.6027 132.3 22.0 13.4 121 2023 09 22 10 03 01 19.101 +11 50 52.62 .74457 1.6026 132.3 22.0 13.9 121 2023 09 22 11 03 01 21.509 +11 51 27.56 .74425 1.6025 132.3 22.0 14.3 121 2023 09 22 12 03 01 23.913 +11 52 02.52 .74394 1.6024 132.4 22.0 14.7 121 2023 09 22 13 03 01 26.315 +11 52 37.49 .74363 1.6023 132.4 21.9 15.1 121